Flag for Jordan Weather past 2 weeks in Amman, Jordan

Now
88 °F

Clear.


Feels Like: 85 °F
Forecast: 68 / 88 °F
Wind: 12 mph from North

Location: Amman Airport

Current Time: Jul 29, 2014 at 6:59:37 PM

Latest Report: Jul 29, 2014 at 6:00 PM


Visibility: 4 mi

Pressure: 29.86 "Hg

Humidity: 29%

Dew point: 52 °F

Location of AmmanLocation

Historic Weather in Amman — Graph

°F

Amman temperature yesterday

Maximum temperature yesterday: 88 °F (at 3:00 PM)
Minimum temperature yesterday: 68 °F (at 6:00 AM)
Average temperature yesterday: 78 °F

Past Weeks' High & Low Weather Summary

 TemperatureHumidityPressure
High90 °F (Jul 29, 2:00 PM)88% (Jul 21, 6:00 AM)30.01 "Hg (Jul 21, 6:00 AM)
Low64 °F (Jul 18, 5:00 AM)18% (Jul 24, 12:00 PM)29.80 "Hg (Jul 25, 4:00 PM)
Average76 °F51%29.88 "Hg
* Reported Jul 14 6:00 PM — Jul 29 6:00 PM, Amman, Weather by CustomWeather, © 2014

Note: Actual official high and low records may vary slightly from our data, if they occured in-between our weather recording intervals... More about our weather records

Advertising

Amman weather history for previous 24 hours

 ConditionsComfort  
Time TempWeatherWind HumidityBarometerVisibility
6:00 PM
Jul 29
88 °FClear.12 mph29%29.86 "Hg4 mi
5:00 PM90 °FClear.14 mph29%29.86 "Hg4 mi
4:00 PM88 °FClear.14 mph27%29.89 "Hg4 mi
3:00 PM90 °FClear.14 mph26%29.89 "Hg4 mi
2:00 PM90 °FClear.16 mph24%29.89 "Hg4 mi
1:00 PM88 °FClear.17 mph24%29.92 "Hg4 mi
12:00 PM88 °FClear.17 mph22%29.89 "Hg4 mi
11:00 AM86 °FClear.16 mph25%29.92 "Hg4 mi
10:00 AM82 °FHaze.6 mph30%29.92 "Hg3 mi
9:00 AM79 °FHaze.6 mph39%29.92 "Hg3 mi
8:00 AM77 °FHaze.5 mph47%29.92 "Hg3 mi
7:00 AM73 °FHaze.No wind53%29.92 "Hg3 mi
6:00 AM72 °FHaze.8 mph57%29.89 "Hg3 mi
5:00 AM72 °FHaze.8 mph57%29.89 "Hg3 mi
4:00 AM72 °FHaze.7 mph57%29.89 "Hg3 mi
3:00 AM75 °FHaze.5 mph47%29.89 "Hg3 mi
2:00 AM75 °FHaze.8 mph44%29.89 "Hg3 mi
1:00 AM75 °FHaze.No wind44%29.92 "Hg3 mi
11:00 PM
Jul 28
77 °FHaze.7 mph44%29.95 "Hg3 mi
10:00 PM77 °FHaze.7 mph51%29.98 "Hg3 mi
9:00 PM77 °FHaze.12 mph54%29.92 "Hg3 mi
8:00 PM79 °FHaze.13 mph58%29.92 "Hg3 mi
6:00 PM86 °FHaze.14 mph38%29.92 "Hg3 mi
Weather by CustomWeather, © 2014

See weather overviewHow to use our weather pages